This is the latest recevied weather packets stored in our database for station/object K7LER. If no packets are shown the sender has not sent any weather packets the latest 1 day(s).
| Time | Temp. | Humidity | Pressure | Rain* | Wind** | Luminosity | Snow |
|---|---|---|---|---|---|---|---|
| 1778007334 | 13.89° C | 81% | 1016.2 hPa | 0 mm | 0 m/s | 158 W/m² | - |
| 1778007034 | 13.89° C | 81% | 1016.2 hPa | 0 mm | 0 m/s | 174 W/m² | - |
| 1778006743 | 13.89° C | 81% | 1016.2 hPa | 0 mm | 0 m/s | 186 W/m² | - |
| 1778006435 | 13.89° C | 82% | 1016.3 hPa | 0 mm | 0 m/s | 167 W/m² | - |
| 1778006135 | 13.33° C | 82% | 1016.2 hPa | 0 mm | 0 m/s | 163 W/m² | - |
| 1778005842 | 13.33° C | 82% | 1016.3 hPa | 0 mm | 0 m/s | 167 W/m² | - |
| 1778005533 | 13.33° C | 82% | 1016.3 hPa | 0 mm | 0 m/s | 186 W/m² | - |
| 1778005233 | 13.33° C | 81% | 1016.2 hPa | 0 mm | 0 m/s | 179 W/m² | - |
| 1778004945 | 13.33° C | 81% | 1016.3 hPa | 0 mm | 0 m/s | 153 W/m² | - |
| 1778004635 | 13.33° C | 82% | 1016.2 hPa | 0 mm | 0 m/s | 167 W/m² | - |
| 1778004336 | 13.33° C | 82% | 1016 hPa | 0 mm | 0 m/s | 183 W/m² | - |
| 1778004051 | 13.33° C | 82% | 1016.1 hPa | 0 mm | 0 m/s | 174 W/m² | - |
| 1778003735 | 13.33° C | 83% | 1016.1 hPa | 0 mm | 0 m/s | 167 W/m² | - |
| 1778003435 | 13.33° C | 82% | 1016.1 hPa | 0 mm | 0 m/s | 151 W/m² | - |
| 1778003152 | 13.33° C | 83% | 1016.1 hPa | 0 mm | 0 m/s | 155 W/m² | - |
| 1778002835 | 13.33° C | 82% | 1016.1 hPa | 0 mm | 0 m/s | 151 W/m² | - |
| 1778002534 | 13.33° C | 82% | 1016.2 hPa | 0 mm | 0 m/s | 149 W/m² | - |
| 1778002251 | 13.33° C | 82% | 1016.1 hPa | 0 mm | 0 m/s | 128 W/m² | - |
| 1778001935 | 13.33° C | 83% | 1016.1 hPa | 0 mm | 0 m/s | 132 W/m² | - |
| 1778001635 | 13.33° C | 83% | 1016.1 hPa | 0 mm | 0 m/s | 139 W/m² | - |
| 1778001341 | 13.33° C | 83% | 1016 hPa | 0 mm | 0 m/s | 118 W/m² | - |
| 1778001037 | 12.78° C | 83% | 1016 hPa | 0 mm | 0 m/s | 114 W/m² | - |
| 1778000736 | 12.78° C | 84% | 1016 hPa | 0 mm | 0 m/s | 113 W/m² | - |
| 1778000449 | 12.78° C | 83% | 1016 hPa | 0 mm | 0 m/s | 93 W/m² | - |
| 1778000134 | 12.78° C | 84% | 1016 hPa | 0 mm | 0 m/s | 84 W/m² | - |
* Rain latest hour (hover to see other rain measurements)
** Current wind speed in m/s (hover to see current wind gust speed)